N1SD KSAN-

Flight info

Callsign N1SD
Flight time N/A
Altitude VFR/005
Route VFR S
Aircraft EC45/L-VGD/C

Departure

Time 2026-04-22 03:54
Airport San Diego International Airport (KSAN)

Arrival

Time N/A
Airport -
Time Latitude Longitude Altitude Speed Heading
2026-04-22 03:48 32.73380 -117.17872 21 ft 0 kts 226°
2026-04-22 03:51 32.73378 -117.17875 28 ft 2 kts 230°
2026-04-22 03:51 32.73383 -117.17876 48 ft 5 kts 284°
2026-04-22 03:52 32.73448 -117.18100 183 ft 59 kts 279°
2026-04-22 03:52 32.73285 -117.18611 277 ft 86 kts 200°
2026-04-22 03:52 32.72663 -117.18671 371 ft 91 kts 180°
2026-04-22 03:52 32.72080 -117.18511 500 ft 80 kts 152°
2026-04-22 03:53 32.71628 -117.18223 592 ft 67 kts 144°
2026-04-22 03:53 32.71331 -117.17872 537 ft 53 kts 93°
2026-04-22 03:53 32.71233 -117.17694 449 ft 6 kts 87°
2026-04-22 03:53 32.71317 -117.17687 425 ft 12 kts 82°
2026-04-22 03:54 32.71331 -117.17542 354 ft 15 kts 75°
2026-04-22 03:54 32.71405 -117.17489 353 ft 15 kts 74°
2026-04-22 03:54 32.71566 -117.17328 431 ft 61 kts 71°
2026-04-22 03:54 32.71744 -117.16717 645 ft 84 kts 85°
2026-04-22 03:55 32.71595 -117.16023 641 ft 73 kts 88°
2026-04-22 03:55 32.71524 -117.15649 632 ft 26 kts 355°
2026-04-22 03:55 32.71715 -117.15616 536 ft 31 kts 306°
2026-04-22 03:55 32.71790 -117.15728 583 ft 6 kts 286°
2026-04-22 03:56 32.71805 -117.15770 537 ft 4 kts 288°
2026-04-22 03:56 32.71806 -117.15787 524 ft 0 kts 272°
2026-04-22 03:58 32.71799 -117.15798 544 ft 7 kts 255°
2026-04-22 03:59 32.71719 -117.15986 647 ft 51 kts 237°
2026-04-22 03:59 32.71439 -117.16522 544 ft 90 kts 238°
2026-04-22 03:59 32.71104 -117.17165 517 ft 88 kts 229°
2026-04-22 03:59 32.70540 -117.17263 512 ft 93 kts 153°
2026-04-22 04:00 32.70041 -117.16706 446 ft 101 kts 133°
2026-04-22 04:00 32.69494 -117.16145 471 ft 108 kts 142°
2026-04-22 04:00 32.68829 -117.15530 415 ft 131 kts 140°
2026-04-22 04:00 32.68267 -117.14692 502 ft 134 kts 122°
2026-04-22 04:01 32.67677 -117.13773 403 ft 137 kts 127°
2026-04-22 04:01 32.67172 -117.12810 390 ft 137 kts 114°
2026-04-22 04:01 32.66741 -117.11798 369 ft 136 kts 116°
2026-04-22 04:01 32.66421 -117.10781 469 ft 132 kts 99°
2026-04-22 04:02 32.66172 -117.09734 392 ft 132 kts 108°
2026-04-22 04:02 32.65709 -117.08891 416 ft 116 kts 120°
2026-04-22 04:02 32.65274 -117.08103 484 ft 113 kts 125°
2026-04-22 04:02 32.64820 -117.07352 545 ft 112 kts 125°
2026-04-22 04:03 32.64451 -117.06539 615 ft 115 kts 106°
2026-04-22 04:03 32.64061 -117.05696 669 ft 117 kts 124°
2026-04-22 04:03 32.63634 -117.04879 718 ft 116 kts 121°
2026-04-22 04:03 32.63208 -117.04059 701 ft 119 kts 123°
2026-04-22 04:04 32.62714 -117.03262 680 ft 117 kts 120°
2026-04-22 04:04 32.62290 -117.02549 651 ft 99 kts 142°
2026-04-22 04:04 32.61697 -117.02271 732 ft 93 kts 159°
2026-04-22 04:04 32.61143 -117.01849 784 ft 96 kts 150°
2026-04-22 04:05 32.60561 -117.01413 809 ft 102 kts 150°
2026-04-22 04:05 32.59883 -117.01002 645 ft 116 kts 148°
2026-04-22 04:05 32.59304 -117.00633 903 ft 80 kts 166°
2026-04-22 04:05 32.58773 -117.00413 874 ft 84 kts 156°
2026-04-22 04:06 32.58203 -117.00173 756 ft 82 kts 159°
2026-04-22 04:06 32.57754 -116.99916 781 ft 58 kts 143°
2026-04-22 04:06 32.57554 -116.99759 729 ft 18 kts 146°
2026-04-22 04:06 32.57467 -116.99691 701 ft 16 kts 147°
2026-04-22 04:07 32.57350 -116.99625 714 ft 22 kts 152°
2026-04-22 04:07 32.57210 -116.99530 716 ft 20 kts 167°
2026-04-22 04:07 32.57092 -116.99481 681 ft 19 kts 169°
2026-04-22 04:07 32.57007 -116.99466 678 ft 8 kts 163°
2026-04-22 04:08 32.56992 -116.99435 692 ft 3 kts 155°
2026-04-22 04:08 32.56964 -116.99411 731 ft 10 kts 155°
2026-04-22 04:08 32.56903 -116.99364 731 ft 11 kts 160°
2026-04-22 04:08 32.56809 -116.99294 722 ft 22 kts 158°
2026-04-22 04:09 32.56676 -116.99217 735 ft 19 kts 168°
2026-04-22 04:09 32.56571 -116.99178 754 ft 10 kts 168°
2026-04-22 04:09 32.56561 -116.99113 740 ft 11 kts 152°
2026-04-22 04:09 32.56520 -116.99054 754 ft 11 kts 166°
2026-04-22 04:10 32.56492 -116.99019 766 ft 5 kts 169°
2026-04-22 04:10 32.56448 -116.98994 784 ft 15 kts 155°
2026-04-22 04:10 32.56363 -116.99007 832 ft 11 kts 202°
2026-04-22 04:10 32.56326 -116.98979 842 ft 12 kts 180°
2026-04-22 04:11 32.56345 -116.98879 841 ft 12 kts 153°
2026-04-22 04:11 32.56224 -116.98831 842 ft 24 kts 156°
2026-04-22 04:11 32.56110 -116.98675 861 ft 30 kts 131°
2026-04-22 04:11 32.56093 -116.98440 878 ft 28 kts 147°
2026-04-22 04:12 32.56039 -116.98275 819 ft 18 kts 138°
2026-04-22 04:12 32.56015 -116.98244 588 ft 1 kts 154°
2026-04-22 04:12 32.56015 -116.98243 620 ft 0 kts 155°
2026-04-22 04:12 32.56015 -116.98242 635 ft 0 kts 168°
2026-04-22 04:13 32.56014 -116.98243 649 ft 0 kts 171°
2026-04-22 04:13 32.55944 -116.98171 726 ft 48 kts 176°
2026-04-22 04:14 32.55473 -116.97914 801 ft 85 kts 188°
2026-04-22 04:14 32.54959 -116.98068 776 ft 66 kts 184°
2026-04-22 04:14 32.54679 -116.98138 760 ft 15 kts 122°
2026-04-22 04:14 32.54535 -116.98079 567 ft 35 kts 105°
2026-04-22 04:15 32.54477 -116.97908 491 ft 4 kts 93°
2026-04-22 04:15 32.54480 -116.97884 492 ft 0 kts 89°
2026-04-22 04:19 32.54456 -116.97863 517 ft 14 kts 224°
2026-04-22 04:19 32.54289 -116.98148 632 ft 75 kts 266°
2026-04-22 04:19 32.54496 -116.98797 817 ft 93 kts 309°
2026-04-22 04:19 32.55042 -116.99100 995 ft 80 kts 326°
2026-04-22 04:20 32.55494 -116.99384 1046 ft 73 kts 323°
2026-04-22 04:20 32.55988 -116.99644 889 ft 85 kts 332°
2026-04-22 04:20 32.56570 -116.99615 841 ft 93 kts 43°
2026-04-22 04:20 32.56646 -116.98821 852 ft 95 kts 58°
2026-04-22 04:21 32.56923 -116.98443 692 ft 32 kts 286°
2026-04-22 04:21 32.57062 -116.98346 584 ft 10 kts 258°
2026-04-22 04:21 32.57038 -116.98466 563 ft 9 kts 286°
2026-04-22 04:21 32.57047 -116.98505 526 ft 0 kts 275°